COSMOS 2251 DEB

Satellite information

Favourite Embed

Satellite Type and Status

DEBRISIN ORBIT

Key statistics

Satellite COSMOS 2251 DEB at a glance.

Uptime

11764

Days in orbit

Revolutions

≈ 14.4

Per day

Orbit

LEO

Low Earth Orbit

Inclination

74.0

Latest

Satellite identification and parameters

Extended collection of information and parameters for COSMOS 2251 DEB.

Object identification

Identified? True

Debris? True

Object name: COSMOS 2251 DEB

International designator: 1993-036ATY

Object number (NORAD): 35885

Object ID (CCSDS): 35885

Country: COMMONWEALTH OF INDEPENDENT STATES (CIS)

Current information (Y/N): Y

RCS size: SMALL

Orbital parameters

Period: 100.192 minutes

Inclination: 74.0279 deg

SMA: 7145.752 km

Apoapsis: 785.476 km

Periapsis: 749.757 km

RAAN: 127.6956 deg

Eccentricy: 0.00249931

Argument of periapsis: 237.8734 deg

Mean anomaly: 121.9994 deg

Mean motion: 14.37245204 rev/day

Mean motion (dot): 0.00000819 rev/day2

B* drag term: 0.00028275209 1/REarth

Two-line elements (TLE)

Creation date: Aug. 30, 2025, 3:38 a.m.

Reference frame: TEME

Reference center: EARTH

Epoch: Aug. 29, 2025, 10:48 p.m. UTC

TLE line 0: 0 COSMOS 2251 DEB

TLE line 1: 1 35885U 93036ATY 25241.95040793 .00000819 00000-0 28275-3 0 9996

TLE line 2: 2 35885 74.0279 127.6956 0024993 237.8734 121.9994 14.37245204635109

Live tracking on map

Real-time ground track for satellite COSMOS 2251 DEB.

In-orbit conjunctions

A list of the most updated potential collisions computed for object COSMOS 2251 DEB.

Target Orbit TCA Probability of collision Miss distance Type
NOAA 6 SSO 2024-12-13 06:08:56 0.0001251353 686.0 (m) PAYLOAD
FENGYUN 1C DEB SSO 2024-09-06 15:07:04 0.0001094173 188.0 (m) DEBRIS

Associated space launch

Military communications satellite. Destroyed in a collision with Iridium 33.

COSMOS 2251 DEB was lifted into orbit during the mission ‘Kosmos-3M | Strela-2M 51’, on board a Kosmos-3M space rocket.

The launch took place on June 16, 1993, 4:17 a.m. from 132/1 (132L).

For more information about the launch, click the button.

Launch to space Kosmos-3M | Strela-2M 51
Kosmos-3M | Strela-2M 51

Agency: N/A

Status: Launch Successful

Launch date: June 16, 1993, 4:17 a.m. UTC

Rocket: Kosmos-3M

Launch pad: 132/1 (132L)

Location: Plesetsk Cosmodrome, Russian Federation

...

Latest news about this satellite

There are no fresh news available about this satellite. Check back as we update our databases every day.


Newsletter sign-up

Weekly statistics, charts and insights to help you stay on top of the space industry.